| time (UTC) | temp F | wind direction | speed knots | gust knots | rain 1hr in | rain 24hr in | rain mn in | humidity % | barometer mb |
| 20260831050605 | 64 | 138 | 0.9 | 4.3 | 0.00 | 0.00 | 0.00 | 65 | 1002.0 |
| 20260831050106 | 65 | 137 | 0.9 | 4.3 | 0.00 | 0.00 | 0.00 | 64 | 1002.0 |
| 20260831045606 | 65 | 142 | 1.7 | 1.7 | 0.00 | 0.00 | 0.00 | 64 | 1002.0 |
| 20260831045105 | 65 | 136 | 0.9 | 2.6 | 0.00 | 0.00 | 0.00 | 63 | 1002.0 |
| 20260831044606 | 65 | 122 | 1.7 | 2.6 | 0.00 | 0.00 | 0.00 | 63 | 1002.0 |
| 20260831043605 | 66 | 135 | 1.7 | 5.2 | 0.00 | 0.00 | 0.00 | 63 | 1001.9 |
| 20260831042607 | 65 | 140 | 0.9 | 4.3 | 0.00 | 0.00 | 0.00 | 63 | 1002.0 |
| 20260831042106 | 65 | 153 | 0.9 | 1.7 | 0.00 | 0.00 | 0.00 | 63 | 1001.7 |
| 20260831041605 | 65 | 157 | 0.0 | 1.7 | 0.00 | 0.00 | 0.00 | 64 | 1001.7 |
| 20260831040606 | 66 | 135 | 0.0 | 0.0 | 0.00 | 0.00 | 0.00 | 63 | 1001.7 |
| 20260831040106 | 66 | 225 | 0.0 | 0.0 | 0.00 | 0.00 | 0.00 | 63 | 1001.7 |
| 20260831035106 | 67 | 156 | 0.0 | 1.7 | 0.00 | 0.00 | 0.00 | 62 | 1001.7 |
| 20260831034605 | 67 | 135 | 0.0 | 1.7 | 0.00 | 0.00 | 0.00 | 61 | 1001.7 |
| 20260831034105 | 68 | 135 | 0.0 | 0.0 | 0.00 | 0.00 | 0.00 | 60 | 1001.7 |
| 20260831033605 | 68 | 135 | 0.0 | 0.9 | 0.00 | 0.00 | 0.00 | 59 | 1001.7 |
| 20260831033106 | 68 | 120 | 0.0 | 0.9 | 0.00 | 0.00 | 0.00 | 58 | 1001.7 |
| 20260831032605 | 68 | 148 | 0.0 | 1.7 | 0.00 | 0.00 | 0.00 | 58 | 1001.7 |
| 20260831032105 | 69 | 135 | 0.9 | 1.7 | 0.00 | 0.00 | 0.00 | 58 | 1001.4 |
| 20260831031607 | 69 | 112 | 0.0 | 0.9 | 0.00 | 0.00 | 0.00 | 57 | 1001.4 |
| 20260831030605 | 70 | 112 | 0.0 | 0.9 | 0.00 | 0.00 | 0.00 | 55 | 1001.4 |
| 20260831030105 | 70 | 82 | 0.0 | 0.9 | 0.00 | 0.00 | 0.00 | 54 | 1001.4 |
| 20260831025605 | 71 | 337 | 0.0 | 0.9 | 0.00 | 0.00 | 0.00 | 53 | 1001.2 |
| 20260831025106 | 72 | 292 | 0.0 | 0.9 | 0.00 | 0.00 | 0.00 | 51 | 1001.2 |
| 20260831024606 | 72 | 292 | 0.0 | 1.7 | 0.00 | 0.00 | 0.00 | 50 | 1001.0 |
| 20260831024105 | 73 | 292 | 0.9 | 1.7 | 0.00 | 0.00 | 0.00 | 49 | 1001.0 |
| 20260831023605 | 74 | 292 | 0.0 | 1.7 | 0.00 | 0.00 | 0.00 | 47 | 1001.0 |
| 20260831021605 | 78 | 149 | 0.9 | 4.3 | 0.00 | 0.00 | 0.00 | 44 | 1000.7 |
| 20260831021106 | 78 | 123 | 0.0 | 2.6 | 0.00 | 0.00 | 0.00 | 44 | 1000.7 |
| 20260831020607 | 79 | 176 | 0.9 | 1.7 | 0.00 | 0.00 | 0.00 | 44 | 1000.9 |
| 20260831020106 | 79 | 160 | 0.9 | 2.6 | 0.00 | 0.00 | 0.00 | 44 | 1000.8 |
| 20260831015605 | 79 | 281 | 1.7 | 6.1 | 0.00 | 0.00 | 0.00 | 44 | 1000.8 |
| 20260831015105 | 79 | 255 | 1.7 | 4.3 | 0.00 | 0.00 | 0.00 | 44 | 1000.7 |
| 20260831014605 | 79 | 230 | 1.7 | 5.2 | 0.00 | 0.00 | 0.00 | 44 | 1000.7 |
| 20260831013605 | 79 | 258 | 2.6 | 8.7 | 0.00 | 0.00 | 0.00 | 43 | 1000.7 |
| 20260831013105 | 80 | 238 | 4.3 | 7.0 | 0.00 | 0.00 | 0.00 | 42 | 1000.7 |
| 20260831012605 | 80 | 236 | 4.3 | 8.7 | 0.00 | 0.00 | 0.00 | 41 | 1000.7 |
| 20260831012105 | 80 | 251 | 2.6 | 5.2 | 0.00 | 0.00 | 0.00 | 41 | 1000.7 |
| 20260831011606 | 80 | 287 | 2.6 | 7.0 | 0.00 | 0.00 | 0.00 | 41 | 1000.7 |
| 20260831011106 | 81 | 241 | 3.5 | 8.7 | 0.00 | 0.00 | 0.00 | 39 | 1000.7 |
| 20260831010605 | 82 | 232 | 5.2 | 10.4 | 0.00 | 0.00 | 0.00 | 38 | 1000.7 |
| 20260831010106 | 82 | 272 | 2.6 | 6.1 | 0.00 | 0.00 | 0.00 | 37 | 1000.7 |
| 20260831005607 | 82 | 242 | 2.6 | 4.3 | 0.00 | 0.00 | 0.00 | 37 | 1000.7 |
| 20260831004606 | 83 | 231 | 3.5 | 10.4 | 0.00 | 0.00 | 0.00 | 36 | 1000.7 |
| 20260831004105 | 83 | 268 | 2.6 | 5.2 | 0.00 | 0.00 | 0.00 | 36 | 1000.7 |
| 20260831003605 | 82 | 240 | 3.5 | 8.7 | 0.00 | 0.00 | 0.00 | 36 | 1000.7 |
| 20260831003106 | 83 | 250 | 2.6 | 5.2 | 0.00 | 0.00 | 0.00 | 35 | 1000.7 |
| 20260831002105 | 83 | 277 | 3.5 | 8.7 | 0.00 | 0.00 | 0.00 | 35 | 1000.7 |
| 20260831001605 | 83 | 269 | 2.6 | 10.4 | 0.00 | 0.00 | 0.00 | 35 | 1000.7 |
| 20260831001105 | 83 | 265 | 4.3 | 7.8 | 0.00 | 0.00 | 0.00 | 36 | 1000.7 |
| 20260831000605 | 82 | 291 | 3.5 | 6.1 | 0.00 | 0.00 | 0.00 | 37 | 1000.8 |
| 20260831000105 | 82 | 249 | 4.3 | 10.4 | 0.00 | 0.00 | 0.00 | 38 | 1000.8 |
| 20260830235605 | 82 | 269 | 3.5 | 7.8 | 0.00 | 0.00 | 0.00 | 38 | 1001.0 |
| 20260830235105 | 82 | 241 | 3.5 | 7.0 | 0.00 | 0.00 | 0.00 | 39 | 1000.9 |
| 20260830233605 | 82 | 290 | 2.6 | 5.2 | 0.00 | 0.00 | 0.00 | 41 | 1001.0 |
| 20260830233105 | 82 | 290 | 2.6 | 7.0 | 0.00 | 0.00 | 0.00 | 42 | 1001.0 |
| 20260830232605 | 82 | 267 | 2.6 | 7.0 | 0.00 | 0.00 | 0.00 | 42 | 1001.2 |
| 20260830232105 | 82 | 268 | 2.6 | 7.0 | 0.00 | 0.00 | 0.00 | 42 | 1001.0 |
| 20260830231105 | 82 | 258 | 4.3 | 7.0 | 0.00 | 0.00 | 0.00 | 42 | 1001.0 |
| 20260830230105 | 82 | 258 | 3.5 | 7.8 | 0.00 | 0.00 | 0.00 | 43 | 1001.2 |
| 20260830225606 | 82 | 248 | 4.3 | 8.7 | 0.00 | 0.00 | 0.00 | 43 | 1001.4 |
| 20260830225107 | 82 | 251 | 2.6 | 7.8 | 0.00 | 0.00 | 0.00 | 43 | 1001.4 |
| 20260830223106 | 81 | 245 | 2.6 | 6.1 | 0.00 | 0.00 | 0.00 | 45 | 1001.5 |
| 20260830222606 | 80 | 288 | 2.6 | 7.8 | 0.00 | 0.00 | 0.00 | 45 | 1001.7 |
| 20260830222105 | 81 | 285 | 1.7 | 6.1 | 0.00 | 0.00 | 0.00 | 45 | 1001.7 |
| 20260830221604 | 80 | 328 | 2.6 | 6.1 | 0.00 | 0.00 | 0.00 | 45 | 1001.7 |
| 20260830221106 | 81 | 261 | 2.6 | 6.1 | 0.00 | 0.00 | 0.00 | 45 | 1001.8 |
| 20260830220604 | 81 | 289 | 3.5 | 6.1 | 0.00 | 0.00 | 0.00 | 45 | 1001.7 |
| 20260830220105 | 80 | 242 | 2.6 | 6.1 | 0.00 | 0.00 | 0.00 | 45 | 1002.0 |
| 20260830215605 | 80 | 299 | 2.6 | 7.8 | 0.00 | 0.00 | 0.00 | 46 | 1002.2 |
| 20260830215105 | 80 | 263 | 2.6 | 6.1 | 0.00 | 0.00 | 0.00 | 46 | 1002.2 |
| 20260830213605 | 79 | 256 | 2.6 | 6.1 | 0.00 | 0.00 | 0.00 | 46 | 1002.4 |
| 20260830213105 | 79 | 248 | 3.5 | 7.8 | 0.00 | 0.00 | 0.00 | 46 | 1002.4 |
| 20260830212604 | 80 | 326 | 3.5 | 5.2 | 0.00 | 0.00 | 0.00 | 46 | 1002.4 |
| 20260830212106 | 80 | 250 | 2.6 | 7.0 | 0.00 | 0.00 | 0.00 | 46 | 1002.4 |
| 20260830211606 | 80 | 255 | 3.5 | 7.0 | 0.00 | 0.00 | 0.00 | 46 | 1002.7 |
| 20260830211105 | 80 | 313 | 2.6 | 6.1 | 0.00 | 0.00 | 0.00 | 46 | 1002.5 |
| 20260830210605 | 80 | 281 | 2.6 | 7.0 | 0.00 | 0.00 | 0.00 | 47 | 1002.5 |
| 20260830210105 | 79 | 258 | 1.7 | 5.2 | 0.00 | 0.00 | 0.00 | 47 | 1002.7 |
| 20260830205605 | 79 | 329 | 2.6 | 7.0 | 0.00 | 0.00 | 0.00 | 47 | 1002.7 |
| 20260830205105 | 79 | 241 | 3.5 | 7.8 | 0.00 | 0.00 | 0.00 | 47 | 1002.7 |
| 20260830204605 | 79 | 256 | 2.6 | 7.0 | 0.00 | 0.00 | 0.00 | 47 | 1003.0 |
| 20260830204104 | 79 | 268 | 2.6 | 7.0 | 0.00 | 0.00 | 0.00 | 48 | 1002.9 |
| 20260830203606 | 79 | 279 | 2.6 | 7.8 | 0.00 | 0.00 | 0.00 | 47 | 1003.0 |
| 20260830203104 | 79 | 287 | 2.6 | 6.1 | 0.00 | 0.00 | 0.00 | 47 | 1003.0 |
| 20260830202106 | 78 | 309 | 1.7 | 4.3 | 0.00 | 0.00 | 0.00 | 47 | 1003.2 |
| 20260830201605 | 79 | 297 | 1.7 | 5.2 | 0.00 | 0.00 | 0.00 | 47 | 1003.2 |
| 20260830201105 | 79 | 267 | 2.6 | 5.2 | 0.00 | 0.00 | 0.00 | 44 | 1003.3 |
| 20260830200605 | 80 | 216 | 2.6 | 7.0 | 0.00 | 0.00 | 0.00 | 43 | 1003.4 |
| 20260830200105 | 79 | 201 | 0.9 | 5.2 | 0.00 | 0.00 | 0.00 | 42 | 1003.4 |
| 20260830195605 | 79 | 195 | 0.9 | 6.1 | 0.00 | 0.00 | 0.00 | 43 | 1003.4 |
| 20260830195105 | 79 | 196 | 0.9 | 2.6 | 0.00 | 0.00 | 0.00 | 44 | 1003.4 |
| 20260830194106 | 78 | 126 | 0.9 | 4.3 | 0.00 | 0.00 | 0.00 | 45 | 1003.5 |
| 20260830193605 | 78 | 144 | 0.9 | 6.1 | 0.00 | 0.00 | 0.00 | 46 | 1003.6 |
| 20260830193105 | 77 | 138 | 0.9 | 2.6 | 0.00 | 0.00 | 0.00 | 46 | 1003.5 |
| 20260830192606 | 77 | 157 | 2.6 | 7.0 | 0.00 | 0.00 | 0.00 | 46 | 1003.7 |
| 20260830192105 | 77 | 132 | 0.9 | 4.3 | 0.00 | 0.00 | 0.00 | 47 | 1003.7 |
| 20260830191604 | 77 | 236 | 2.6 | 6.1 | 0.00 | 0.00 | 0.00 | 47 | 1003.7 |
| 20260830190605 | 76 | 141 | 0.9 | 4.3 | 0.00 | 0.00 | 0.00 | 50 | 1003.9 |
| 20260830190105 | 75 | 187 | 1.7 | 5.2 | 0.00 | 0.00 | 0.00 | 50 | 1004.1 |
| 20260830185605 | 75 | 218 | 0.9 | 5.2 | 0.00 | 0.00 | 0.00 | 50 | 1004.1 |
| 20260830185105 | 75 | 141 | 1.7 | 2.6 | 0.00 | 0.00 | 0.00 | 51 | 1004.1 |
| 20260830184604 | 74 | 169 | 1.7 | 5.2 | 0.00 | 0.00 | 0.00 | 52 | 1004.1 |
| 20260830184104 | 74 | 138 | 1.7 | 6.1 | 0.00 | 0.00 | 0.00 | 53 | 1004.1 |
| 20260830183606 | 73 | 180 | 1.7 | 5.2 | 0.00 | 0.00 | 0.00 | 54 | 1004.1 |
| 20260830182606 | 73 | 199 | 1.7 | 7.8 | 0.00 | 0.00 | 0.00 | 54 | 1004.1 |
| 20260830182105 | 73 | 135 | 1.7 | 4.3 | 0.00 | 0.00 | 0.00 | 54 | 1004.1 |
| 20260830181604 | 73 | 137 | 1.7 | 4.3 | 0.00 | 0.00 | 0.00 | 55 | 1004.1 |
| 20260830181104 | 72 | 165 | 2.6 | 6.1 | 0.00 | 0.00 | 0.00 | 55 | 1004.1 |
| 20260830180604 | 72 | 161 | 1.7 | 6.1 | 0.00 | 0.00 | 0.00 | 56 | 1004.1 |
| 20260830180105 | 72 | 159 | 1.7 | 5.2 | 0.00 | 0.00 | 0.00 | 56 | 1004.2 |
| 20260830175604 | 71 | 208 | 1.7 | 6.1 | 0.00 | 0.00 | 0.00 | 57 | 1004.4 |
| 20260830174104 | 70 | 141 | 1.7 | 5.2 | 0.00 | 0.00 | 0.00 | 59 | 1004.4 |
| 20260830173604 | 70 | 143 | 2.6 | 7.0 | 0.00 | 0.00 | 0.00 | 60 | 1004.4 |
| 20260830173105 | 70 | 131 | 1.7 | 7.0 | 0.00 | 0.00 | 0.00 | 61 | 1004.4 |
| 20260830172104 | 69 | 142 | 2.6 | 7.8 | 0.00 | 0.00 | 0.00 | 63 | 1004.5 |
| 20260830171106 | 69 | 166 | 3.5 | 7.0 | 0.00 | 0.00 | 0.00 | 64 | 1004.5 |
| 20260830170605 | 68 | 200 | 1.7 | 7.0 | 0.00 | 0.00 | 0.00 | 64 | 1004.4 |
| 20260830170105 | 68 | 155 | 1.7 | 6.1 | 0.00 | 0.00 | 0.00 | 65 | 1004.5 |
| 20260830165604 | 68 | 208 | 1.7 | 6.1 | 0.00 | 0.00 | 0.00 | 66 | 1004.7 |
| 20260830165105 | 67 | 167 | 1.7 | 6.1 | 0.00 | 0.00 | 0.00 | 67 | 1004.5 |
| 20260830164605 | 67 | 218 | 1.7 | 5.2 | 0.00 | 0.00 | 0.00 | 68 | 1004.5 |
| 20260830163604 | 66 | 159 | 2.6 | 7.0 | 0.00 | 0.00 | 0.00 | 69 | 1004.4 |
| 20260830163104 | 65 | 173 | 2.6 | 6.1 | 0.00 | 0.00 | 0.00 | 69 | 1004.6 |
| 20260830162605 | 65 | 158 | 3.5 | 7.0 | 0.00 | 0.00 | 0.00 | 70 | 1004.4 |
| 20260830162105 | 65 | 157 | 1.7 | 4.3 | 0.00 | 0.00 | 0.00 | 70 | 1004.4 |
| 20260830161604 | 64 | 148 | 2.6 | 5.2 | 0.00 | 0.00 | 0.00 | 71 | 1004.4 |
| 20260830160606 | 64 | 154 | 3.5 | 7.0 | 0.00 | 0.00 | 0.00 | 72 | 1004.4 |
| 20260830155104 | 63 | 133 | 2.6 | 7.8 | 0.00 | 0.00 | 0.00 | 74 | 1004.4 |
| 20260830154605 | 63 | 158 | 2.6 | 8.7 | 0.00 | 0.00 | 0.00 | 75 | 1004.6 |
| 20260830154106 | 63 | 176 | 1.7 | 7.0 | 0.00 | 0.00 | 0.00 | 75 | 1004.7 |
| 20260830153606 | 62 | 169 | 2.6 | 8.7 | 0.00 | 0.00 | 0.00 | 76 | 1004.7 |
| 20260830153104 | 62 | 162 | 1.7 | 6.1 | 0.00 | 0.00 | 0.00 | 77 | 1004.7 |
| 20260830152105 | 61 | 161 | 1.7 | 6.1 | 0.00 | 0.00 | 0.00 | 78 | 1004.7 |
| 20260830151604 | 61 | 120 | 2.6 | 6.1 | 0.00 | 0.00 | 0.00 | 79 | 1004.7 |
| 20260830151105 | 61 | 175 | 1.7 | 7.8 | 0.00 | 0.00 | 0.00 | 79 | 1004.4 |
| 20260830150604 | 60 | 127 | 4.3 | 8.7 | 0.00 | 0.00 | 0.00 | 80 | 1004.5 |
| 20260830150105 | 60 | 149 | 3.5 | 7.8 | 0.00 | 0.00 | 0.00 | 81 | 1004.4 |
| 20260830145605 | 59 | 159 | 2.6 | 6.1 | 0.00 | 0.00 | 0.00 | 82 | 1004.4 |
| 20260830145105 | 59 | 163 | 2.6 | 6.1 | 0.00 | 0.00 | 0.00 | 82 | 1004.4 |
| 20260830144604 | 59 | 144 | 1.7 | 7.0 | 0.00 | 0.00 | 0.00 | 83 | 1004.4 |
| 20260830144104 | 58 | 137 | 2.6 | 6.1 | 0.00 | 0.00 | 0.00 | 84 | 1004.4 |
| 20260830143605 | 58 | 120 | 2.6 | 7.8 | 0.00 | 0.00 | 0.00 | 84 | 1004.4 |
| 20260830143104 | 58 | 120 | 2.6 | 7.0 | 0.00 | 0.00 | 0.00 | 84 | 1004.4 |
| 20260830142104 | 58 | 131 | 2.6 | 7.0 | 0.00 | 0.00 | 0.00 | 85 | 1004.1 |
| 20260830141604 | 58 | 135 | 2.6 | 6.1 | 0.00 | 0.00 | 0.00 | 85 | 1004.1 |
| 20260830141104 | 58 | 139 | 2.6 | 5.2 | 0.00 | 0.00 | 0.00 | 85 | 1004.1 |
| 20260830140605 | 58 | 130 | 1.7 | 5.2 | 0.00 | 0.00 | 0.00 | 85 | 1004.1 |
| 20260830140104 | 58 | 124 | 2.6 | 7.0 | 0.00 | 0.00 | 0.00 | 85 | 1004.1 |
| 20260830135104 | 58 | 137 | 1.7 | 6.1 | 0.00 | 0.00 | 0.00 | 85 | 1003.9 |
| 20260830134106 | 58 | 130 | 2.6 | 5.2 | 0.00 | 0.00 | 0.00 | 85 | 1003.7 |
| 20260830133605 | 58 | 128 | 3.5 | 6.1 | 0.00 | 0.00 | 0.00 | 85 | 1003.7 |
| 20260830133104 | 58 | 137 | 2.6 | 7.0 | 0.00 | 0.00 | 0.00 | 85 | 1003.6 |
| 20260830132604 | 58 | 136 | 1.7 | 7.0 | 0.00 | 0.00 | 0.00 | 85 | 1003.7 |
| 20260830131604 | 58 | 145 | 2.6 | 7.8 | 0.00 | 0.00 | 0.00 | 85 | 1003.4 |
| 20260830131105 | 58 | 119 | 2.6 | 11.3 | 0.00 | 0.00 | 0.00 | 85 | 1003.7 |
| 20260830130605 | 58 | 114 | 2.6 | 7.0 | 0.00 | 0.00 | 0.00 | 85 | 1003.6 |
| 20260830130104 | 58 | 139 | 1.7 | 7.0 | 0.00 | 0.00 | 0.00 | 85 | 1003.4 |
| 20260830125605 | 58 | 146 | 2.6 | 7.0 | 0.00 | 0.00 | 0.00 | 85 | 1003.4 |
| 20260830125106 | 58 | 143 | 1.7 | 6.1 | 0.00 | 0.00 | 0.00 | 85 | 1003.4 |
| 20260830124604 | 58 | 135 | 2.6 | 5.2 | 0.00 | 0.00 | 0.00 | 85 | 1003.4 |
| 20260830124104 | 58 | 142 | 2.6 | 8.7 | 0.00 | 0.00 | 0.00 | 85 | 1003.4 |
| 20260830123605 | 58 | 144 | 2.6 | 7.8 | 0.00 | 0.00 | 0.00 | 85 | 1003.4 |
| 20260830122604 | 58 | 137 | 1.7 | 7.8 | 0.00 | 0.00 | 0.00 | 84 | 1003.4 |
| 20260830121104 | 58 | 135 | 2.6 | 4.3 | 0.00 | 0.00 | 0.00 | 84 | 1003.4 |
| 20260830120606 | 58 | 142 | 2.6 | 7.0 | 0.00 | 0.00 | 0.00 | 84 | 1003.0 |
| 20260830120104 | 58 | 125 | 2.6 | 5.2 | 0.00 | 0.00 | 0.00 | 84 | 1003.2 |
| 20260830115604 | 58 | 137 | 2.6 | 7.0 | 0.00 | 0.00 | 0.00 | 84 | 1003.3 |
| 20260830115104 | 58 | 136 | 1.7 | 8.7 | 0.00 | 0.00 | 0.00 | 83 | 1003.4 |
| 20260830114604 | 58 | 122 | 2.6 | 5.2 | 0.00 | 0.00 | 0.00 | 83 | 1003.4 |
| 20260830114105 | 58 | 136 | 1.7 | 4.3 | 0.00 | 0.00 | 0.00 | 83 | 1003.3 |
| 20260830113604 | 58 | 142 | 1.7 | 7.0 | 0.00 | 0.00 | 0.00 | 83 | 1003.0 |
| 20260830113104 | 58 | 151 | 2.6 | 7.0 | 0.00 | 0.00 | 0.00 | 83 | 1003.1 |
| 20260830112604 | 58 | 127 | 1.7 | 4.3 | 0.00 | 0.00 | 0.00 | 83 | 1003.0 |
| 20260830111604 | 58 | 146 | 1.7 | 5.2 | 0.00 | 0.00 | 0.00 | 82 | 1003.0 |
| 20260830111104 | 58 | 150 | 2.6 | 12.2 | 0.00 | 0.00 | 0.00 | 82 | 1003.3 |
| 20260830110604 | 58 | 145 | 1.7 | 5.2 | 0.00 | 0.00 | 0.00 | 82 | 1003.0 |
| 20260830110104 | 58 | 164 | 2.6 | 7.0 | 0.00 | 0.00 | 0.00 | 82 | 1003.0 |
| 20260830105604 | 58 | 133 | 2.6 | 6.1 | 0.00 | 0.00 | 0.00 | 82 | 1003.2 |
| 20260830104604 | 58 | 126 | 1.7 | 4.3 | 0.00 | 0.00 | 0.00 | 82 | 1003.1 |
| 20260830104104 | 58 | 134 | 1.7 | 5.2 | 0.00 | 0.00 | 0.00 | 82 | 1003.0 |
| 20260830103605 | 58 | 125 | 3.5 | 7.0 | 0.00 | 0.00 | 0.00 | 81 | 1003.0 |
| 20260830103105 | 59 | 137 | 1.7 | 4.3 | 0.00 | 0.00 | 0.00 | 81 | 1003.3 |
| 20260830102105 | 59 | 127 | 1.7 | 8.7 | 0.00 | 0.00 | 0.00 | 81 | 1003.1 |
| 20260830101604 | 59 | 133 | 2.6 | 7.0 | 0.00 | 0.00 | 0.00 | 81 | 1003.0 |
| 20260830101104 | 59 | 130 | 1.7 | 7.8 | 0.00 | 0.00 | 0.00 | 81 | 1003.0 |
| 20260830100604 | 59 | 135 | 1.7 | 5.2 | 0.00 | 0.00 | 0.00 | 81 | 1003.0 |
| 20260830095604 | 59 | 142 | 1.7 | 7.0 | 0.00 | 0.00 | 0.00 | 81 | 1003.0 |
| 20260830095104 | 59 | 138 | 2.6 | 6.1 | 0.00 | 0.00 | 0.00 | 81 | 1003.4 |
| 20260830094604 | 59 | 129 | 2.6 | 5.2 | 0.00 | 0.00 | 0.00 | 81 | 1003.0 |
| 20260830093604 | 59 | 133 | 1.7 | 7.8 | 0.00 | 0.00 | 0.00 | 81 | 1003.2 |
| 20260830093104 | 59 | 134 | 2.6 | 4.3 | 0.00 | 0.00 | 0.00 | 81 | 1003.4 |
| 20260830092604 | 59 | 135 | 1.7 | 5.2 | 0.00 | 0.00 | 0.00 | 80 | 1003.4 |
| 20260830092104 | 60 | 134 | 1.7 | 7.0 | 0.00 | 0.00 | 0.00 | 80 | 1003.4 |
| 20260830091604 | 60 | 137 | 1.7 | 4.3 | 0.00 | 0.00 | 0.00 | 80 | 1003.4 |
| 20260830091104 | 60 | 153 | 2.6 | 7.0 | 0.00 | 0.00 | 0.00 | 79 | 1003.4 |
| 20260830090604 | 60 | 122 | 1.7 | 4.3 | 0.00 | 0.00 | 0.00 | 79 | 1003.4 |
| 20260830090104 | 60 | 136 | 1.7 | 6.1 | 0.00 | 0.00 | 0.00 | 79 | 1003.4 |
| 20260830085104 | 60 | 139 | 2.6 | 6.1 | 0.00 | 0.00 | 0.00 | 80 | 1003.4 |
| 20260830084605 | 60 | 143 | 1.7 | 5.2 | 0.00 | 0.00 | 0.00 | 80 | 1003.4 |
| 20260830084105 | 60 | 157 | 2.6 | 5.2 | 0.00 | 0.00 | 0.00 | 80 | 1003.4 |
| 20260830083603 | 60 | 149 | 1.7 | 7.0 | 0.00 | 0.00 | 0.00 | 80 | 1003.4 |
| 20260830082603 | 60 | 138 | 1.7 | 4.3 | 0.00 | 0.00 | 0.00 | 80 | 1003.3 |
| 20260830082104 | 60 | 138 | 1.7 | 4.3 | 0.00 | 0.00 | 0.00 | 80 | 1003.4 |
| 20260830081603 | 60 | 139 | 2.6 | 7.0 | 0.00 | 0.00 | 0.00 | 79 | 1003.4 |
| 20260830081104 | 60 | 129 | 1.7 | 7.8 | 0.00 | 0.00 | 0.00 | 79 | 1003.4 |
| 20260830080604 | 60 | 138 | 2.6 | 6.1 | 0.00 | 0.00 | 0.00 | 79 | 1003.4 |
| 20260830075604 | 61 | 154 | 1.7 | 6.1 | 0.00 | 0.00 | 0.00 | 78 | 1003.4 |
| 20260830075104 | 61 | 132 | 2.6 | 8.7 | 0.00 | 0.00 | 0.00 | 78 | 1003.4 |
| 20260830074104 | 61 | 146 | 2.6 | 7.0 | 0.00 | 0.00 | 0.00 | 77 | 1003.4 |
| 20260830073604 | 61 | 156 | 1.7 | 5.2 | 0.00 | 0.00 | 0.00 | 77 | 1003.4 |
| 20260830073104 | 61 | 148 | 1.7 | 5.2 | 0.00 | 0.00 | 0.00 | 77 | 1003.4 |
| 20260830072604 | 61 | 149 | 1.7 | 6.1 | 0.00 | 0.00 | 0.00 | 77 | 1003.4 |
| 20260830072105 | 61 | 136 | 1.7 | 7.0 | 0.00 | 0.00 | 0.00 | 76 | 1003.4 |
| 20260830071604 | 61 | 156 | 1.7 | 5.2 | 0.00 | 0.00 | 0.00 | 76 | 1003.4 |
| 20260830070603 | 61 | 152 | 2.6 | 6.1 | 0.00 | 0.00 | 0.00 | 76 | 1003.4 |
| 20260830070106 | 61 | 148 | 2.6 | 7.0 | 0.00 | 0.00 | 0.00 | 75 | 1003.4 |
| 20260830065606 | 61 | 133 | 2.6 | 6.1 | 0.00 | 0.00 | 0.00 | 75 | 1003.3 |
| 20260830065106 | 61 | 157 | 1.7 | 7.0 | 0.00 | 0.00 | 0.00 | 74 | 1003.4 |
| 20260830064606 | 61 | 150 | 1.7 | 7.0 | 0.00 | 0.00 | 0.00 | 74 | 1003.4 |
| 20260830064106 | 62 | 123 | 2.6 | 6.1 | 0.00 | 0.00 | 0.00 | 73 | 1003.1 |
| 20260830063606 | 62 | 135 | 1.7 | 7.0 | 0.00 | 0.00 | 0.00 | 73 | 1003.4 |
| 20260830063107 | 62 | 140 | 2.6 | 5.2 | 0.00 | 0.00 | 0.00 | 72 | 1003.4 |
| 20260830062606 | 62 | 155 | 2.6 | 6.1 | 0.00 | 0.00 | 0.00 | 72 | 1003.0 |
| 20260830062106 | 62 | 161 | 2.6 | 7.8 | 0.00 | 0.00 | 0.00 | 72 | 1003.0 |
| 20260830061607 | 62 | 148 | 2.6 | 6.1 | 0.00 | 0.00 | 0.00 | 71 | 1003.3 |
| 20260830061106 | 62 | 138 | 2.6 | 7.0 | 0.00 | 0.00 | 0.00 | 71 | 1003.0 |
| 20260830060606 | 62 | 158 | 2.6 | 7.8 | 0.00 | 0.00 | 0.00 | 71 | 1003.4 |
| 20260830060107 | 62 | 129 | 2.6 | 6.1 | 0.00 | 0.00 | 0.00 | 70 | 1003.1 |
| 20260830055605 | 62 | 134 | 2.6 | 7.8 | 0.00 | 0.00 | 0.00 | 70 | 1003.4 |
| 20260830055106 | 63 | 137 | 1.7 | 5.2 | 0.00 | 0.00 | 0.00 | 70 | 1003.4 |
| 20260830054605 | 63 | 115 | 1.7 | 4.3 | 0.00 | 0.00 | 0.00 | 69 | 1003.4 |
| 20260830054105 | 63 | 134 | 1.7 | 5.2 | 0.00 | 0.00 | 0.00 | 69 | 1003.4 |
| 20260830053106 | 63 | 130 | 2.6 | 7.0 | 0.00 | 0.00 | 0.00 | 69 | 1003.4 |
| 20260830052105 | 63 | 157 | 1.7 | 5.2 | 0.00 | 0.00 | 0.00 | 69 | 1003.4 |
| 20260830051605 | 63 | 148 | 2.6 | 7.0 | 0.00 | 0.00 | 0.00 | 69 | 1003.4 |